CW5709 Weather Reports


Display with metric or nautical units.
time (UTC)temp
F
wind
direction
speed
MPH
gust
MPH
rain 1hr
in
rain 24hr
in
rain mn
in
humidity
%
barometer
mb
20210616072427 54 296 0.0 0.0 0.00 0.02 0.00 83 1028.8
20210616071515 54 296 0.0 0.0 0.00 0.02 0.00 82 1029.0
20210616070423 55 296 0.0 0.0 0.00 0.02 0.00 81 1029.0
20210616065418 55 296 0.0 0.0 0.00 0.02 0.02 81 1029.1
20210616064434 55 296 0.0 0.0 0.00 0.02 0.02 82 1029.0
20210616063432 55 296 0.0 0.0 0.00 0.02 0.02 81 1029.1
20210616062432 55 296 0.0 0.0 0.00 0.02 0.02 81 1029.2
20210616061433 55 296 0.0 1.0 0.00 0.02 0.02 80 1029.1
20210616060431 55 296 0.0 0.0 0.00 0.02 0.02 80 1029.0
20210616055425 56 296 0.0 1.0 0.00 0.02 0.02 79 1029.1
20210616054423 56 296 0.0 0.0 0.00 0.02 0.02 78 1029.2
20210616053422 57 296 0.0 0.0 0.00 0.02 0.02 78 1029.1
20210616052439 57 296 0.0 0.0 0.00 0.02 0.02 77 1029.1
20210616051433 57 296 0.0 1.0 0.00 0.02 0.02 76 1029.0
20210616050422 58 296 0.0 0.0 0.00 0.02 0.02 76 1029.1
20210616045439 58 296 0.0 1.0 0.00 0.02 0.02 75 1029.0
20210616044435 59 296 0.0 1.0 0.00 0.02 0.02 73 1028.9
20210616043419 59 296 0.0 0.0 0.00 0.02 0.02 73 1028.8
20210616042436 60 296 0.0 0.0 0.00 0.02 0.02 70 1028.8
20210616041431 60 296 0.0 0.0 0.00 0.02 0.02 70 1028.6
20210616040429 61 296 0.0 2.0 0.00 0.02 0.02 69 1028.5
20210616035420 61 311 0.0 1.0 0.00 0.02 0.02 68 1028.4
20210616034436 62 332 0.0 2.0 0.00 0.02 0.02 67 1028.3
20210616033431 62 304 0.0 3.0 0.00 0.02 0.02 66 1028.3
20210616032426 62 284 0.0 6.0 0.00 0.02 0.02 66 1028.2
20210616031420 63 267 0.0 4.0 0.00 0.02 0.02 65 1028.1
20210616030438 63 286 3.0 6.0 0.00 0.02 0.02 63 1028.0
20210616025433 63 273 1.0 13.0 0.00 0.02 0.02 63 1027.9
20210616024433 64 260 3.0 8.0 0.00 0.02 0.02 63 1027.9
20210616023424 64 306 3.0 9.0 0.00 0.02 0.02 61 1027.8
20210616022421 65 321 3.0 9.0 0.00 0.02 0.02 61 1027.7
20210616021438 65 267 3.0 11.0 0.00 0.02 0.02 60 1027.6
20210616020432 65 271 2.0 12.0 0.00 0.02 0.02 61 1027.6
20210616015426 66 284 3.0 11.0 0.00 0.03 0.02 60 1027.5
20210616014427 66 283 3.0 13.0 0.00 0.03 0.02 59 1027.3
20210616013440 67 332 3.0 10.0 0.00 0.03 0.02 57 1027.3
20210616012435 67 315 3.0 8.0 0.00 0.03 0.02 57 1027.2
20210616011428 68 63 1.0 12.0 0.00 0.03 0.02 57 1027.2
20210616010424 68 329 3.0 8.0 0.00 0.03 0.02 56 1027.2
20210616005421 68 325 4.0 11.0 0.00 0.03 0.02 55 1027.2
20210616004438 68 347 5.0 11.0 0.00 0.03 0.02 56 1027.2
20210616003430 68 314 0.0 5.0 0.00 0.03 0.02 59 1027.2
20210616002430 67 9 0.0 3.0 0.00 0.03 0.02 57 1027.1
20210616001426 67 328 0.0 3.0 0.00 0.03 0.02 58 1027.1
20210616000425 67 328 1.0 6.0 0.00 0.03 0.02 58 1027.0
20210615235438 67 324 1.0 5.0 0.00 0.03 0.02 55 1026.9
20210615234432 67 288 2.0 8.0 0.00 0.03 0.02 57 1026.9
20210615233429 67 308 0.0 9.0 0.00 0.03 0.02 60 1026.8
20210615232429 68 296 1.0 8.0 0.00 0.03 0.02 55 1026.9
20210615231421 69 175 0.0 5.0 0.00 0.03 0.02 55 1026.7
20210615230438 69 254 0.0 6.0 0.00 0.03 0.02 56 1026.5
20210615225425 69 270 0.0 8.0 0.00 0.04 0.02 52 1026.5
20210615224419 70 195 0.0 3.0 0.00 0.04 0.02 54 1026.3
20210615223434 70 298 0.0 9.0 0.01 0.04 0.02 52 1026.2
20210615222429 70 313 2.0 8.0 0.01 0.04 0.02 54 1026.2
20210615221427 70 314 3.0 8.0 0.01 0.04 0.02 51 1026.0
20210615220438 70 287 1.0 10.0 0.01 0.04 0.02 55 1025.9
20210615215430 71 294 1.0 3.0 0.01 0.04 0.02 54 1025.9
20210615214429 71 183 1.0 8.0 0.01 0.04 0.02 54 1025.8
20210615213428 73 285 2.0 9.0 0.00 0.03 0.01 50 1025.8
20210615212443 73 180 3.0 7.0 0.00 0.03 0.01 50 1025.6
20210615211430 71 264 2.0 9.0 0.00 0.03 0.01 54 1025.6
20210615210423 70 186 3.0 8.0 0.00 0.03 0.01 59 1025.4
20210615205436 69 318 1.0 6.0 0.00 0.03 0.01 57 1025.3
20210615204433 69 176 4.0 8.0 0.00 0.03 0.01 59 1025.1
20210615203422 68 163 4.0 9.0 0.00 0.03 0.01 58 1025.2
20210615202420 68 213 1.0 6.0 0.00 0.03 0.01 60 1025.2
20210615201433 67 333 2.0 9.0 0.00 0.03 0.01 63 1025.2
20210615200431 66 94 1.0 7.0 0.00 0.03 0.01 66 1025.2
20210615195425 66 308 1.0 5.0 0.00 0.03 0.01 62 1025.1
20210615194440 67 224 0.0 3.0 0.00 0.03 0.01 61 1024.8
20210615193432 67 177 1.0 8.0 0.00 0.03 0.01 63 1024.8
20210615192433 67 213 2.0 9.0 0.00 0.03 0.01 61 1024.8
20210615191425 66 200 3.0 10.0 0.00 0.03 0.01 61 1024.6
20210615190424 66 176 1.0 7.0 0.00 0.03 0.01 64 1024.4
20210615185423 66 155 2.0 7.0 0.00 0.03 0.01 61 1024.3
20210615184421 66 166 5.0 7.0 0.00 0.03 0.01 63 1024.3
20210615183432 65 177 2.0 11.0 0.00 0.03 0.01 66 1024.0
20210615182429 64 182 1.0 6.0 0.00 0.03 0.01 67 1024.1
20210615181425 64 190 2.0 8.0 0.00 0.03 0.01 68 1024.0
20210615180439 63 141 1.0 8.0 0.00 0.03 0.01 70 1023.8
20210615175430 63 203 1.0 4.0 0.00 0.03 0.01 72 1023.9
20210615174429 63 158 1.0 7.0 0.00 0.03 0.01 68 1023.7
20210615173427 63 178 3.0 5.0 0.00 0.03 0.01 68 1023.6
20210615172424 62 178 0.0 3.0 0.00 0.03 0.01 71 1023.6
20210615171439 62 176 0.0 3.0 0.00 0.03 0.01 71 1023.5
20210615170435 62 169 3.0 7.0 0.00 0.03 0.01 70 1023.5
20210615165433 61 167 0.0 1.0 0.00 0.03 0.01 73 1023.3
20210615164430 61 167 2.0 3.0 0.00 0.03 0.01 75 1023.3
20210615163438 60 167 1.0 8.0 0.00 0.03 0.01 78 1023.2
20210615162431 59 171 3.0 7.0 0.00 0.03 0.01 78 1023.0
20210615161426 58 177 3.0 7.0 0.00 0.03 0.01 81 1023.1
20210615160440 57 176 1.0 5.0 0.00 0.03 0.01 86 1023.1
20210615155429 57 167 1.0 6.0 0.00 0.04 0.01 89 1023.0
20210615154425 56 208 0.0 1.0 0.00 0.04 0.01 92 1022.8
20210615153440 56 208 0.0 3.0 0.00 0.04 0.01 92 1022.7
20210615152432 55 167 3.0 7.0 0.00 0.04 0.01 94 1022.7
20210615151425 55 172 0.0 1.0 0.00 0.04 0.01 94 1022.5
20210615150422 54 172 0.0 0.0 0.01 0.04 0.01 94 1022.5
20210615145421 54 172 0.0 0.0 0.01 0.04 0.01 94 1022.4
20210615144419 53 181 0.0 0.0 0.01 0.04 0.01 94 1022.4
20210615143434 53 139 0.0 0.0 0.01 0.04 0.01 94 1022.3
20210615142429 52 274 0.0 0.0 0.01 0.04 0.01 94 1022.0
20210615141536 52 274 0.0 0.0 0.01 0.04 0.01 94 1022.0
20210615135451 51 273 0.0 0.0 0.00 0.03 0.00 94 1022.0
20210615134430 50 273 0.0 0.0 0.00 0.03 0.00 93 1022.0
20210615133522 49 273 0.0 0.0 0.00 0.03 0.00 92 1021.9
20210615132513 49 273 0.0 0.0 0.00 0.03 0.00 92 1021.9
20210615131442 49 273 0.0 0.0 0.00 0.03 0.00 92 1021.8
20210615130451 49 306 0.0 0.0 0.00 0.03 0.00 92 1021.8
20210615125457 49 306 0.0 0.0 0.00 0.04 0.00 92 1021.6
20210615124434 49 360 0.0 0.0 0.00 0.04 0.00 92 1021.6
20210615123420 49 360 0.0 0.0 0.00 0.04 0.00 91 1021.5
20210615122523 49 360 0.0 0.0 0.00 0.04 0.00 91 1021.5
20210615121426 49 360 0.0 0.0 0.00 0.04 0.00 91 1021.5
20210615120502 49 360 0.0 0.0 0.00 0.04 0.00 91 1021.3
20210615115520 49 360 0.0 0.0 0.00 0.04 0.00 91 1021.2
20210615114505 50 360 0.0 0.0 0.00 0.04 0.00 91 1021.2
20210615113427 50 360 0.0 0.0 0.00 0.04 0.00 90 1021.2
20210615112426 50 360 0.0 0.0 0.00 0.04 0.00 90 1021.2
20210615111500 50 360 0.0 0.0 0.00 0.04 0.00 90 1021.1
20210615110447 50 360 0.0 0.0 0.00 0.04 0.00 90 1021.2
20210615105441 50 360 0.0 0.0 0.00 0.04 0.00 90 1021.3
20210615104500 50 360 0.0 0.0 0.00 0.04 0.00 89 1021.4
20210615103512 50 360 0.0 0.0 0.00 0.04 0.00 89 1021.3
20210615102521 51 360 0.0 0.0 0.00 0.04 0.00 89 1021.4
20210615101506 51 360 0.0 0.0 0.00 0.04 0.00 89 1021.4
20210615100505 51 360 0.0 0.0 0.00 0.04 0.00 89 1021.3
20210615095456 51 360 0.0 0.0 0.00 0.05 0.00 89 1021.3
20210615094508 51 360 0.0 0.0 0.00 0.05 0.00 89 1021.3
20210615093502 52 360 0.0 0.0 0.00 0.05 0.00 89 1021.2
20210615092459 52 360 0.0 0.0 0.00 0.05 0.00 89 1021.2
20210615091459 52 360 0.0 0.0 0.00 0.05 0.00 88 1021.1
20210615090427 52 360 0.0 0.0 0.00 0.05 0.00 88 1021.0
20210615085509 53 360 0.0 0.0 0.00 0.05 0.00 88 1021.0
20210615084518 53 360 0.0 0.0 0.00 0.05 0.00 88 1020.9
20210615083430 53 360 0.0 0.0 0.00 0.05 0.00 87 1020.9
20210615082440 53 360 0.0 0.0 0.00 0.05 0.00 87 1020.8
20210615081451 54 360 0.0 0.0 0.00 0.05 0.00 87 1020.8
20210615080445 54 360 0.0 0.0 0.00 0.05 0.00 87 1020.9
20210615075426 54 360 0.0 0.0 0.00 0.06 0.00 87 1020.8
20210615074510 54 360 0.0 0.0 0.00 0.06 0.00 86 1020.9
20210615073422 54 360 0.0 0.0 0.00 0.06 0.00 85 1020.9